Showing default

FLOCK 4G 23, 62647

Orbit data source: Space-Track

FLOCK 4G 23, 62647 is a payload satellite owned by Planet (US) in SSO that was launched on Tue, 14 Jan 2025 UTC via an FALCON 9 launch vehicle from the Air Force Western Test Range (AFWTR). Payload-class satellites include a variety of spacecraft equipped with specific instruments for various scientific and technological missions. These include communications satellites like Starlink; space stations such as the ISS; scientific satellites like the Hubble; Earth observation satellites from companies like Planet Labs, Umbra, and HawkEye 360; GPS; miniature CubeSats for education and research; and military/defense satellites.

Loading next visibility...
Identifier
62647, 2025-009AQ
Orbit
SSO
Country
Flag of USUS
Related business
Manufacturer
Planet
Mission
Operational Commercial Imaging
Bus & Motor
CUBESAT 3U, Unknown motor
Mass
5.7 kg wet, 5.7 kg dry
Launch date (UTC)
2025-01-14 (1 year ago)
Launch vehicle
FALCON 9
Launch site
Air Force Western Test Range (AFWTR)
Object type
Payload
Rocket body
Debris
Shape & HBR
Box + 2 Pan, 1.0 m
Radar Cross Section
0.072 m², Medium (>0.1 m² and < 1m²)

Expand to show TLE details & history
Last TLE update: 8 hours ago

TLE from 8 hours ago
0 FLOCK 4G 23
1 62647U 25009AQ  26038.17698536  .00012757  00000-0  49093-3 0  9995
2 62647  97.4034 120.6676 0002972  83.8235 276.3342 15.26512388 59069
Epoch: 2026-02-07T04:14Z
TLE epoch observation values (Epoch: 2026-02-07T04:14:51.535Z)
Latitude
-0.00002°
Longitude
-80.35138°
Altitude
489.122 km
Speed
7.621 km/s
True Right ascension
08h 02m 40s
True Declination
0° 00' 00"
Sunlit
Object was in full shadow at epoch
Visualization orbit readout
Latitude
Unknown
Longitude
Unknown
Altitude
Unknown
Speed
Unknown
Apparent Right ascension
Unknown
Apparent Declination
Unknown
Sunlit
N/A
Visualization observer readout
Local Sidereal Time
14:23:01
Azimuth
Unknown
Elevation
Unknown
Doppler factor
Unknown
Orbital elements
Apogee altitude
485.244 km
Perigee altitude
481.166 km
Semi-major axis
6,861.342 km
Eccentricity
0.0003
Inclination
97.4034°
RAAN
120.6676°
Arg. of periapsis
83.8235°
True anomaly
276.30035°
Mean anomaly
276.3342°
Eccentric anomaly
276.31728°
Mean motion
3.81882 °/min
Orbital period
94.27 mins
BSTAR
0.00049093
Loading maneuver chart data...
Computing Atmospheric mass density...
Loading historical data...
Loading historical data...
Loading historical data...
Loading historical data...
Loading historical data...
Loading historical data...
Loading historical data...

Documentation

Showing up to 5 results
|